STARLINK-36191 (67023 NORAD) Tracking and Keplerian Element Data

This shows tracking and keplerian element data for the satellite.

Feedback or suggestion? Click here.




ElementValue
Catalog67023
NameSTARLINK-36191
Epoch Orbit132
Epoch Day354.25003472
Epoch Year2025
RAAN301.931
Inclination69.9933
Eccentricity0.0003946
Argument of Perigee272.333
Mean Anonmoly341.675
Mean Motion15.92945812
Decay Rate-0.0130194
L11 67023U 25293W 25354.25003472 -.01301940 49657-3 -37429-2 0 9992
L22 67023 69.9933 301.9310 0003946 272.3330 341.6750 15.92945812 1326



Live tracking and technical data element details for STARLINK-36191 (NORAD 67023). STARLINK-36191 can be tracked NOW for your location showing map with azimuth and elevation plus other details from your city location.







IsCatalogInMostPopularTable: catalog: 67023, numindb: 37
Update: records affected: 1



GetName: 67023 STARLINK-36191

Hit Count: updated at: Tue, 17 Feb 2026 12:48:36 GMT